Flag for Israel Weather past 2 weeks in Safed, Israel

Now
82 °F

Passing clouds.


Feels Like: 87 °F
Forecast: 62 / 84 °F
Wind: 5 mph from Southwest

Location: Beirut Airport

Current Time: Aug 27, 2014 at 10:10:35 PM

Latest Report: Aug 27, 2014 at 9:00 PM


Visibility: 4 mi

Pressure: 29.77 "Hg

Humidity: 70%

Dew point: 72 °F

Location of SafedLocation

Historic Weather in Safed — Graph

°F

Safed temperature yesterday

Maximum temperature yesterday: 88 °F (at 12:00 PM)
Minimum temperature yesterday: 79 °F (at 3:00 AM)
Average temperature yesterday: 84 °F

Past Weeks' High & Low Weather Summary

 TemperatureHumidityPressure
High88 °F (Aug 15, 2:00 PM)84% (Aug 15, 1:00 AM)29.98 "Hg (Aug 15, 1:00 AM)
Low77 °F (Aug 20, 7:00 AM)49% (Aug 21, 4:00 PM)29.62 "Hg (Aug 18, 3:00 AM)
Average83 °F70%29.80 "Hg
* Reported Aug 12 8:00 PM — Aug 27 8:00 PM, Safed, Weather by CustomWeather, © 2014

Note: Actual official high and low records may vary slightly from our data, if they occured in-between our weather recording intervals... More about our weather records

Advertising

Safed weather history for previous 24 hours

 ConditionsComfort  
Time TempWeatherWind HumidityBarometerVisibility
8:00 PM
Aug 27
82 °FScattered clouds.7 mph70%29.77 "Hg4 mi
7:00 PM84 °FPassing clouds.9 mph70%29.77 "HgN/A
6:00 PM86 °FPassing clouds.8 mph62%29.77 "HgN/A
5:00 PM86 °FPassing clouds.9 mph62%29.77 "HgN/A
4:00 PM86 °FPassing clouds.9 mph62%29.77 "HgN/A
3:00 PM88 °FPassing clouds.10 mph62%29.80 "HgN/A
2:00 PM88 °FPassing clouds.10 mph62%29.80 "Hg5 mi
1:00 PM88 °FPassing clouds.10 mph62%29.80 "Hg5 mi
12:00 PM86 °FPassing clouds.12 mph62%29.80 "Hg5 mi
11:00 AM86 °FPassing clouds.10 mph62%29.83 "Hg5 mi
10:00 AM86 °FPassing clouds.10 mph62%29.83 "Hg5 mi
9:00 AM84 °FPassing clouds.10 mph62%29.83 "Hg5 mi
8:00 AM82 °FPassing clouds.8 mph66%29.80 "Hg5 mi
7:00 AM81 °FPassing clouds.5 mph70%29.83 "Hg4 mi
6:00 AM79 °FPassing clouds.3 mph74%29.80 "Hg4 mi
5:00 AM79 °FPassing clouds.5 mph74%29.80 "Hg4 mi
4:00 AM81 °FPassing clouds.6 mph74%29.80 "Hg4 mi
3:00 AM81 °FPassing clouds.6 mph74%29.80 "Hg4 mi
2:00 AM81 °FPassing clouds.6 mph74%29.83 "Hg4 mi
1:00 AM81 °FPassing clouds.7 mph74%29.83 "Hg4 mi
12:00 AM81 °FPassing clouds.7 mph79%29.83 "Hg4 mi
11:00 PM
Aug 26
82 °FPassing clouds.8 mph74%29.83 "Hg4 mi
10:00 PM82 °FPassing clouds.9 mph74%29.83 "Hg4 mi
Weather by CustomWeather, © 2014

See weather overviewHow to use our weather pages